Showing default

QIANFAN-47, 62248

Orbit data source: Space-Track

QIANFAN-47, 62248 is a Chinese payload satellite in LEO that was launched on Thu, 05 Dec 2024 UTC via a CHANG ZHENG 6A launch vehicle from the Taiyaun Space Center, China (TSC). Payload-class satellites include a variety of spacecraft equipped with specific instruments for various scientific and technological missions. These include communications satellites like Starlink; space stations such as the ISS; scientific satellites like the Hubble; Earth observation satellites from companies like Planet Labs, Umbra, and HawkEye 360; GPS; miniature CubeSats for education and research; and military/defense satellites.

Loading next visibility...
Identifier
62248, 2024-232M
Orbit
LEO
Country
Flag of CNCN / PRC
Related business
Manufacturer
SECM
Mission
Operational Commercial Communications
Bus & Motor
QIANFAN, Unknown motor
Mass
267 kg wet, ~267 kg dry
Launch date (UTC)
2024-12-05 (1 year ago)
Launch vehicle
CHANG ZHENG 6A
Launch site
Taiyaun Space Center, China (TSC)
Object type
Payload
Rocket body
Debris
Shape & HBR
Box + 1 Pan, 5.0 m
Radar Cross Section
13.200 m², Large (>1 m²)

Expand to show TLE details & history
Last TLE update: 5 hours ago

TLE from 5 hours ago
0 QIANFAN-47
1 62248U 24232M   26035.14186175  .00000030  00000-0  27313-4 0  9997
2 62248  89.0006  35.8243 0016324  48.6888 311.5666 13.50995825106451
Epoch: 2026-02-04T03:24Z
TLE epoch observation values (Epoch: 2026-02-04T03:24:16.855Z)
Latitude
0.00007°
Longitude
-149.55862°
Altitude
1,063.494 km
Speed
7.324 km/s
True Right ascension
02h 23m 17s
True Declination
0° 00' 00"
Sunlit
Object was in daylight at epoch
Visualization orbit readout
Latitude
Unknown
Longitude
Unknown
Altitude
Unknown
Speed
Unknown
Apparent Right ascension
Unknown
Apparent Declination
Unknown
Sunlit
N/A
Visualization observer readout
Local Sidereal Time
10:42:02
Azimuth
Unknown
Elevation
Unknown
Doppler factor
Unknown
Orbital elements
Apogee altitude
1,077.799 km
Perigee altitude
1,053.497 km
Semi-major axis
7,443.785 km
Eccentricity
0.00163
Inclination
89.0006°
RAAN
35.8243°
Arg. of periapsis
48.6888°
True anomaly
311.42646°
Mean anomaly
311.5666°
Eccentric anomaly
311.49655°
Mean motion
3.3795 °/min
Orbital period
106.52 mins
BSTAR
0.000027313
Loading maneuver chart data...
Computing Atmospheric mass density...
Loading historical data...
Loading historical data...
Loading historical data...
Loading historical data...
Loading historical data...
Loading historical data...
Loading historical data...

Documentation

Showing up to 5 results
|